• In Österreich
  • Länderverzeichnis
  • Für 7 Tage
  • Wassertemperatur
  • Satellitenkarten
  • Wetterkarte
  • News
  • Widgets
  • user-avatar
    Anmelden

    Stündliche Wetter Sidi Bu-l-Abbas

    Heute, 25 Juni, Montag

    Zeit Temperatur Niederschläge Wind Luftdruck Luftfeuchtigkeit
    00:00 +28°C° 0 mm 2 m/S 719 mmHg 55%
    01:00 +27°C° 0 mm 2 m/S 719 mmHg 59%
    02:00 +26°C° 0 mm 2 m/S 719 mmHg 64%
    03:00 +25°C° 0 mm 2 m/S 719 mmHg 68%
    04:00 +25°C° 0 mm 2 m/S 719 mmHg 70%
    05:00 +24°C° 0 mm 2 m/S 719 mmHg 72%
    06:00 +24°C° 0 mm 2 m/S 719 mmHg 74%
    07:00 +25°C° 0 mm 2 m/S 719 mmHg 68%
    08:00 +26°C° 0 mm 2 m/S 720 mmHg 63%
    09:00 +27°C° 0 mm 3 m/S 720 mmHg 58%
    10:00 +29°C° 0 mm 3 m/S 720 mmHg 53%
    11:00 +30°C° 0 mm 3 m/S 720 mmHg 49%
    12:00 +32°C° 0 mm 4 m/S 720 mmHg 45%
    13:00 +32°C° 0 mm 4 m/S 720 mmHg 46%
    14:00 +32°C° 0 mm 5 m/S 720 mmHg 47%
    15:00 +32°C° 0 mm 5 m/S 720 mmHg 48%
    16:00 +30°C° 0 mm 5 m/S 720 mmHg 52%
    17:00 +29°C° 0 mm 4 m/S 720 mmHg 56%
    18:00 +28°C° 0 mm 4 m/S 720 mmHg 60%
    19:00 +27°C° 0 mm 3 m/S 720 mmHg 64%
    20:00 +26°C° 0 mm 3 m/S 721 mmHg 68%
    21:00 +25°C° 0 mm 2 m/S 721 mmHg 72%
    22:00 +25°C° 0 mm 2 m/S 721 mmHg 73%
    23:00 +24°C° 0 mm 2 m/S 721 mmHg 75%

    Morgen, 26 Juni, Dienstag

    Zeit Temperatur Niederschläge Wind Luftdruck Luftfeuchtigkeit
    00:00 +24°C° 0 mm 1 m/S 721 mmHg 76%
    01:00 +24°C° 0 mm 1 m/S 721 mmHg 77%
    02:00 +23°C° 0 mm 1 m/S 721 mmHg 78%
    03:00 +23°C° 0 mm 1 m/S 721 mmHg 79%
    04:00 +23°C° 0 mm 1 m/S 721 mmHg 80%
    05:00 +23°C° 0 mm 1 m/S 721 mmHg 80%
    06:00 +23°C° 0 mm 1 m/S 721 mmHg 80%
    07:00 +24°C° 0 mm 1 m/S 721 mmHg 72%
    08:00 +25°C° 0 mm 1 m/S 721 mmHg 64%
    09:00 +27°C° 0 mm 1 m/S 721 mmHg 56%
    10:00 +28°C° 0 mm 2 m/S 721 mmHg 51%
    11:00 +30°C° 0 mm 2 m/S 721 mmHg 45%
    12:00 +33°C° 0 mm 3 m/S 721 mmHg 40%
    13:00 +33°C° 0 mm 4 m/S 721 mmHg 40%
    14:00 +33°C° 0 mm 4 m/S 721 mmHg 40%
    15:00 +33°C° 0 mm 5 m/S 720 mmHg 40%
    16:00 +32°C° 0 mm 5 m/S 720 mmHg 43%
    17:00 +30°C° 0 mm 4 m/S 720 mmHg 46%
    18:00 +29°C° 0 mm 4 m/S 720 mmHg 50%
    19:00 +28°C° 0 mm 3 m/S 720 mmHg 53%
    20:00 +27°C° 0 mm 3 m/S 721 mmHg 56%
    21:00 +26°C° 0 mm 2 m/S 721 mmHg 59%
    22:00 +26°C° 0 mm 2 m/S 721 mmHg 60%
    23:00 +25°C° 0 mm 1 m/S 721 mmHg 61%

    übermorgen, 27 Juni, Mittwoch

    Zeit Temperatur Niederschläge Wind Luftdruck Luftfeuchtigkeit
    00:00 +25°C° 0 mm 1 m/S 721 mmHg 62%
    01:00 +25°C° 0 mm 1 m/S 721 mmHg 63%
    02:00 +24°C° 0 mm 1 m/S 721 mmHg 65%
    03:00 +24°C° 0 mm 1 m/S 721 mmHg 66%
    04:00 +24°C° 0 mm 1 m/S 721 mmHg 65%
    05:00 +24°C° 0 mm 1 m/S 721 mmHg 65%
    06:00 +24°C° 0 mm 1 m/S 721 mmHg 64%
    07:00 +25°C° 0 mm 1 m/S 721 mmHg 57%
    08:00 +26°C° 0 mm 2 m/S 721 mmHg 51%
    09:00 +28°C° 0 mm 2 m/S 721 mmHg 44%
    10:00 +29°C° 0 mm 2 m/S 721 mmHg 41%
    11:00 +30°C° 0 mm 3 m/S 721 mmHg 38%
    12:00 +31°C° 0 mm 3 m/S 721 mmHg 35%
    13:00 +33°C° 0 mm 4 m/S 720 mmHg 34%
    14:00 +33°C° 0 mm 4 m/S 720 mmHg 34%
    15:00 +34°C° 0 mm 5 m/S 719 mmHg 34%
    16:00 +33°C° 0 mm 4 m/S 719 mmHg 37%
    17:00 +32°C° 0 mm 4 m/S 719 mmHg 39%
    18:00 +30°C° 0 mm 4 m/S 719 mmHg 42%
    19:00 +29°C° 0 mm 3 m/S 719 mmHg 45%
    20:00 +28°C° 0 mm 3 m/S 719 mmHg 49%
    21:00 +27°C° 0 mm 2 m/S 720 mmHg 52%
    22:00 +26°C° 0 mm 1 m/S 719 mmHg 53%
    23:00 +26°C° 0 mm 1 m/S 719 mmHg 54%

    28 Juni, Donnerstag

    Zeit Temperatur Niederschläge Wind Luftdruck Luftfeuchtigkeit
    00:00 +26°C° 0 mm 1 m/S 719 mmHg 55%
    01:00 +25°C° 0 mm 1 m/S 719 mmHg 56%
    02:00 +25°C° 0 mm 1 m/S 718 mmHg 58%
    03:00 +24°C° 0 mm 1 m/S 718 mmHg 60%
    04:00 +24°C° 0 mm 1 m/S 718 mmHg 60%
    05:00 +24°C° 0 mm 1 m/S 718 mmHg 61%
    06:00 +24°C° 0 mm 1 m/S 718 mmHg 61%
    07:00 +25°C° 0 mm 1 m/S 718 mmHg 56%
    08:00 +27°C° 0 mm 2 m/S 718 mmHg 51%
    09:00 +28°C° 0 mm 2 m/S 718 mmHg 46%
    10:00 +29°C° 0 mm 3 m/S 718 mmHg 42%
    11:00 +31°C° 0 mm 3 m/S 718 mmHg 38%
    12:00 +34°C° 0 mm 4 m/S 718 mmHg 34%
    13:00 +33°C° 0 mm 4 m/S 717 mmHg 35%
    14:00 +33°C° 0 mm 5 m/S 717 mmHg 36%
    15:00 +33°C° 0 mm 5 m/S 716 mmHg 37%
    16:00 +32°C° 0 mm 5 m/S 716 mmHg 40%
    17:00 +30°C° 0 mm 5 m/S 716 mmHg 44%
    18:00 +29°C° 0 mm 4 m/S 716 mmHg 47%
    19:00 +28°C° 0 mm 4 m/S 716 mmHg 50%
    20:00 +27°C° 0 mm 3 m/S 716 mmHg 54%
    21:00 +26°C° 0 mm 2 m/S 716 mmHg 58%
    22:00 +25°C° 0 mm 2 m/S 716 mmHg 59%
    23:00 +25°C° 0 mm 2 m/S 716 mmHg 61%

    29 Juni, Freitag

    Zeit Temperatur Niederschläge Wind Luftdruck Luftfeuchtigkeit
    00:00 +25°C° 0 mm 2 m/S 716 mmHg 62%
    01:00 +24°C° 0 mm 2 m/S 716 mmHg 65%
    02:00 +24°C° 0 mm 2 m/S 716 mmHg 67%
    03:00 +22°C° 0 mm 3 m/S 716 mmHg 70%
    04:00 +22°C° 0 mm 3 m/S 716 mmHg 70%
    05:00 +23°C° 0 mm 2 m/S 716 mmHg 70%
    06:00 +23°C° 0 mm 2 m/S 716 mmHg 70%
    07:00 +24°C° 0 mm 3 m/S 716 mmHg 63%
    08:00 +25°C° 0 mm 3 m/S 717 mmHg 56%
    09:00 +26°C° 0 mm 3 m/S 717 mmHg 48%
    10:00 +28°C° 0 mm 3 m/S 717 mmHg 45%
    11:00 +29°C° 0 mm 4 m/S 717 mmHg 42%
    12:00 +30°C° 0 mm 4 m/S 717 mmHg 38%
    13:00 +30°C° 0 mm 4 m/S 716 mmHg 38%
    14:00 +32°C° 0 mm 4 m/S 716 mmHg 37%
    15:00 +32°C° 0 mm 5 m/S 716 mmHg 36%
    16:00 +30°C° 0 mm 5 m/S 716 mmHg 38%
    17:00 +29°C° 0 mm 5 m/S 716 mmHg 41%
    18:00 +28°C° 0 mm 5 m/S 716 mmHg 44%
    19:00 +27°C° 0 mm 3 m/S 716 mmHg 46%
    20:00 +26°C° 0 mm 2 m/S 716 mmHg 49%
    21:00 +26°C° 0 mm 1 m/S 717 mmHg 51%
    22:00 +25°C° 0 mm 1 m/S 717 mmHg 52%
    23:00 +25°C° 0 mm 1 m/S 717 mmHg 53%

    30 Juni, Samstag

    Zeit Temperatur Niederschläge Wind Luftdruck Luftfeuchtigkeit
    00:00 +25°C° 0 mm 1 m/S 717 mmHg 54%
    01:00 +24°C° 0 mm 1 m/S 717 mmHg 55%
    02:00 +24°C° 0 mm 1 m/S 716 mmHg 57%
    03:00 +23°C° 0 mm 1 m/S 716 mmHg 58%
    04:00 +23°C° 0 mm 1 m/S 716 mmHg 57%
    05:00 +24°C° 0 mm 1 m/S 717 mmHg 56%
    06:00 +24°C° 0 mm 1 m/S 717 mmHg 54%
    07:00 +25°C° 0 mm 2 m/S 717 mmHg 49%
    08:00 +26°C° 0 mm 2 m/S 717 mmHg 44%
    09:00 +28°C° 0 mm 2 m/S 718 mmHg 38%
    10:00 +29°C° 0 mm 3 m/S 718 mmHg 35%
    11:00 +31°C° 0 mm 3 m/S 718 mmHg 32%
    12:00 +33°C° 0 mm 3 m/S 718 mmHg 29%
    13:00 +34°C° 0 mm 4 m/S 718 mmHg 28%
    14:00 +34°C° 0 mm 4 m/S 717 mmHg 28%
    15:00 +35°C° 0 mm 5 m/S 717 mmHg 27%
    16:00 +34°C° 0 mm 5 m/S 717 mmHg 29%
    17:00 +33°C° 0 mm 4 m/S 717 mmHg 32%
    18:00 +31°C° 0 mm 3 m/S 717 mmHg 34%
    19:00 +30°C° 0 mm 3 m/S 718 mmHg 36%
    20:00 +29°C° 0 mm 2 m/S 718 mmHg 38%
    21:00 +28°C° 0 mm 1 m/S 719 mmHg 40%
    22:00 +28°C° 0 mm 1 m/S 719 mmHg 42%
    23:00 +27°C° 0 mm 1 m/S 719 mmHg 44%
    Mehr zeigen